Regional Weather Roundup
Issued by NWS

Home | Current Version | Previous Version | Text Only | Print | Product List | Glossary Off
Versions: 1 2 3 4 5 6 7 8 9 10 11 12 13 14 15 16 17 18 19 20 21 22 23 24 25 26 27 28 29 30 31 32 33 34 35 36 37 38 39 40 41 42 43 44 45 46 47 48 49 50

000
ASUS43 KLSX 060807
RWRMO

WEATHER SUMMARY FOR MISSOURI
NATIONAL WEATHER SERVICE SPRINGFIELD MO
300 AM CDT FRI MAY 06 2016

NOTE: "FAIR" INDICATES FEW OR NO CLOUDS BELOW 12,000 FEET WITH NO
       SIGNIFICANT WEATHER AND/OR OBSTRUCTIONS TO VISIBILITY.
       CURRENT SKY AND/OR WEATHER CONDITIONS ARE NOT AVAILABLE FOR
       CHILLICOTHE AND FARMINGTON.

MOZ001>031-035>038-043-044-053-054-060900-
...NORTHERN AND WESTERN MISSOURI...

CITY           SKY/WX    TMP DP  RH WIND       PRES   REMARKS
KANSAS CTY INT CLEAR     52  41  66 S6        30.04F
KANSAS C DTWN  CLEAR     53  47  79 CALM      30.04F
LEE`S SUMMIT   CLEAR     54  40  59 SW5       30.05F
ST JOSEPH      PTCLDY    50  47  89 SW3       30.04S
CHILLICOTHE      N/A     47  44  90 CALM      30.05S
KIRKSVILLE     CLEAR     50  37  61 SW5       30.04S

$$
MOZ066>068-077>081-088>096-101>105-060900-
...SOUTHWEST MISSOURI...

CITY           SKY/WX    TMP DP  RH WIND       PRES   REMARKS
SPRINGFIELD    CLEAR     45  37  73 S5        30.06S
JOPLIN         CLEAR     49  43  80 S3        30.07S

$$
MOZ032>034-039>042-045>050-055>058-069>072-060900-
...CENTRAL MISSOURI...

CITY           SKY/WX    TMP DP  RH WIND       PRES   REMARKS
COLUMBIA       PTCLDY    50  40  68 S6        30.05F
JEFFERSON CITY CLEAR     43  40  89 CALM      30.06F
ROLLA          CLEAR     44  38  79 S3        30.04F
SEDALIA        CLEAR     53  38  56 S5        30.07S
WHITEMAN AFB   CLEAR     46  45  94 SW3       30.05R
WARRENSBURG    CLEAR     46  43  87 CALM      30.06S
OSAGE BEACH    CLEAR     43  32  65 CALM      30.07S

$$
MOZ051-052-059>065-060900-
...EAST CENTRAL MISSOURI...

CITY           SKY/WX    TMP DP  RH WIND       PRES   REMARKS
ST LOUIS INTL  CLEAR     51  43  74 CALM      30.04F
SPIRIT OF STL  CLEAR     44  42  93 CALM      30.04S
ST CHARLES     CLEAR     47  45  93 CALM      30.03F

$$
MOZ072>076-082>087-097>100-106>115-060900-
...SOUTH CENTRAL AND SOUTHEAST MISSOURI...

CITY           SKY/WX    TMP DP  RH WIND       PRES   REMARKS
CAPE GIRARDEAU CLEAR     44  43  96 W6        30.03S
FARMINGTON     CLEAR     42  40  92 CALM      30.05F
POPLAR BLUFF   CLEAR     48  44  86 NW5       30.04S
WEST PLAINS    CLEAR     41  36  82 CALM      30.08S

$$


USA.gov is the U.S. government's official web portal to all federal, state and local government web resources and services.